Voltar ao catálogo

COSMOS 1275 DEB

AtivoPO
NORAD 12743·DEBRIS·🇷🇺 Russia

Lançado Jun 4, 1981 de Plesetsk Cosmodrome

Loading…

Próximas Passagens (próximas 24 horas)

TLE

AtualizadoSource: Space-Track

Época: Sep 14, 2026, 10:46 UTC

1 12743U 81053CL  26257.44921404  .00000420  00000-0  38217-3 0  9994
2 12743  82.9252 145.2496 0061878 287.5259 248.4653 13.80492051263585

Acompanhe COSMOS 1275 DEB em tempo real com AllMySat

Download on the App Store